Theta_e
317 319 317 314 310 316 309 311 306 311 314 318 322 322 327 330 336 338 341 344 347 348 350 351 353 356 358 359 362 365 363 366
317 319 318 316 319 310 312 303 303 307 309 312 319 319 325 327 335 338 341 345 346 347 348 351 353 355 357 358 361 361 362 362
316 314 313 314 312 314 313 311 304 303 306 319 319 323 323 326 334 337 342 341 341 342 345 348 350 350 351 353 355 357 359 359
312 318 319 317 314 315 309 307 311 309 309 323 323 323 325 326 331 338 341 340 340 342 344 345 346 348 348 350 350 353 357 363
310 315 317 313 315 315 315 314 309 306 309 322 322 320 322 325 330 336 340 341 342 342 343 346 347 349 349 351 353 355 358 356
306 310 316 312 314 315 314 309 310 310 311 316 318 317 320 322 326 329 338 340 343 343 342 343 344 344 343 343 350 353 355 358
316 315 314 314 313 314 313 313 309 311 311 315 318 320 323 325 327 329 333 335 337 336 337 338 338 340 339 339 343 350 353 354
312 315 314 312 313 314 313 313 312 312 311 319 323 323 322 326 327 330 332 332 333 334 334 332 334 336 337 338 339 342 346 347
309 314 313 308 312 313 314 314 313 308 313 322 320 321 323 327 328 329 330 331 333 334 334 335 335 337 335 337 338 339 340 342
308 311 301 313 317 314 311 312 312 314 316 321 322 324 325 328 328 329 330 332 332 331 331 331 332 332 335 335 338 339 340 340
306 306 309 311 313 312 311 311 317 316 318 320 321 322 322 326 330 329 329 329 329 330 330 331 330 331 333 333 334 335 336 340
307 302 299 312 315 317 316 305 319 319 318 318 320 313 318 324 325 325 326 326 325 326 327 328 330 330 333 334 338 337 341 341
306 304 308 316 317 318 305 310 319 319 319 318 316 319 322 323 322 323 324 325 328 328 327 329 331 331 331 336 336 341 342 343
308 305 303 318 316 310 317 320 319 319 318 317 318 319 319 320 322 323 324 325 327 327 327 330 331 333 334 335 339 341 340 341
311 311 319 319 317 319 319 318 318 318 318 319 318 319 320 321 323 324 325 326 327 327 328 331 332 335 332 338 341 337 335 336
310 314 315 316 318 319 319 318 319 320 320 321 319 321 321 322 323 324 325 326 327 327 326 326 331 330 332 334 337 337 334 335
311 314 317 317 318 320 320 320 320 321 321 321 321 321 323 323 325 325 326 326 326 326 326 327 329 330 332 332 333 331 332 331
309 316 317 317 319 320 319 319 321 321 321 324 324 323 322 322 323 324 323 328 328 328 329 329 329 332 334 338 336 331 333 331
316 319 319 319 321 321 320 322 322 321 322 320 322 322 323 323 326 322 324 325 327 327 328 330 332 332 333 331 335 334 333 331
Wind_Speed
3 10 13 9 9 10 12 8 7 2 7 8 9 6 7 6 13 8 10 11 10 8 1 2 6 7 6 7 7 8 9 8
9 7 10 15 11 7 5 2 8 7 4 10 7 5 7 6 10 9 8 9 8 7 6 3 2 5 6 5 7 8 8 9
7 11 11 10 13 9 9 9 8 9 8 7 5 7 4 6 9 5 9 7 6 7 6 6 6 5 0 4 5 7 9 8
14 7 6 12 15 11 9 6 9 7 4 11 8 7 5 5 4 9 7 6 4 7 6 7 5 6 5 7 4 7 8 9
12 15 13 11 15 11 16 12 12 9 3 7 8 2 6 9 8 3 1 3 6 7 5 3 6 4 5 3 6 7 7 10
12 3 12 8 9 8 13 12 14 13 18 4 4 4 6 7 10 10 4 6 8 1 6 5 4 3 4 6 7 7 4 2
13 9 6 15 16 14 13 14 15 17 18 14 10 10 8 6 7 5 3 5 4 7 5 2 3 3 4 6 7 8 6 1
14 16 19 16 15 17 16 18 17 16 14 9 10 4 3 3 5 1 3 1 1 1 2 2 1 2 4 5 6 6 6 4
15 14 19 15 15 12 14 11 12 14 5 6 1 1 2 1 1 2 2 3 4 4 5 3 7 5 4 3 6 6 6 6
14 16 18 11 7 4 8 10 12 10 9 8 8 6 5 4 4 5 5 5 5 7 7 9 9 10 8 8 6 7 8 8
13 14 15 13 5 4 8 8 8 4 4 2 4 8 13 8 2 5 7 8 9 11 11 11 12 13 12 11 11 11 11 11
11 12 12 13 9 6 5 9 11 7 6 6 9 9 3 7 8 11 14 14 15 17 17 16 15 15 14 13 12 12 12 12
9 9 3 9 6 5 8 7 7 7 8 9 10 11 15 18 18 17 16 17 17 17 16 17 16 16 16 14 13 13 13 13
6 9 6 10 5 6 7 7 10 11 13 15 16 17 18 18 18 18 19 19 19 18 18 18 17 15 15 16 13 12 13 13
8 7 4 4 5 5 9 11 12 13 14 16 18 19 19 19 20 19 20 18 18 18 19 17 18 14 14 13 13 13 15 15
5 6 5 6 10 8 11 13 12 14 17 19 20 21 22 21 20 19 19 19 18 18 15 12 11 11 12 9 12 15 13 13
7 3 8 4 11 11 14 16 18 18 19 20 22 22 22 21 20 18 17 14 12 12 12 14 14 16 14 11 12 12 14 15
6 7 6 10 12 14 14 15 17 20 21 21 23 23 20 15 14 15 16 19 19 21 21 21 19 18 15 15 14 13 14 13
5 8 10 12 13 15 16 18 18 19 19 18 13 13 16 17 18 19 21 22 20 20 21 20 18 18 17 13 12 15 14 15
Wind_Direction
246 257 246 233 246 359 313 200 239 62 134 203 106 86 68 60 83 65 71 72 69 64 94 151 199 201 209 234 202 204 218 219
144 211 231 274 337 255 320 350 287 155 290 87 84 39 54 55 39 118 80 61 67 49 39 58 178 187 200 202 209 217 218 211
181 215 211 192 233 241 285 319 318 290 107 77 56 45 7 338 97 14 80 106 114 106 87 42 48 39 332 177 236 217 214 209
218 77 325 298 308 297 272 240 255 315 335 75 58 53 39 338 101 70 345 103 139 100 80 86 54 31 43 349 7 311 303 210
237 195 198 241 248 251 282 299 282 274 260 137 135 88 1 356 344 60 122 50 192 126 90 18 102 42 5 16 15 316 279 243
298 203 258 250 226 251 281 287 304 304 319 176 36 37 51 350 321 304 67 90 13 91 84 57 25 42 17 34 13 25 334 47
303 302 259 287 293 291 271 276 275 299 306 320 6 40 28 334 291 316 41 27 22 23 32 66 60 35 32 28 26 24 20 297
285 291 288 261 276 287 280 278 279 289 287 29 63 91 79 45 328 338 85 185 180 231 258 267 135 316 353 2 0 3 351 10
278 282 294 279 270 290 294 294 310 296 358 52 231 120 18 257 257 294 260 251 287 305 272 309 292 264 238 335 321 328 322 317
278 279 267 270 52 330 306 310 298 314 327 45 347 343 272 196 276 291 293 304 294 288 298 291 307 328 333 300 288 282 284 282
273 261 278 270 109 348 352 327 1 332 351 288 288 308 275 265 209 299 303 297 287 282 295 304 295 287 280 276 275 278 271 274
251 268 283 62 67 15 4 278 34 350 337 333 338 283 69 28 321 301 297 296 295 295 294 290 290 290 288 284 273 266 266 267
240 255 237 54 14 331 269 40 350 351 336 318 301 310 312 308 306 302 299 295 292 289 284 281 279 279 279 278 273 278 279 273
220 282 265 20 286 336 15 324 342 325 316 311 305 301 299 299 298 298 297 295 291 287 284 282 279 276 276 273 273 276 276 278
337 34 117 343 341 3 331 316 315 314 309 307 305 303 300 297 295 294 294 291 291 289 288 285 277 280 280 275 269 266 268 269
335 75 4 345 321 318 324 312 302 306 310 306 300 299 301 298 295 294 292 291 291 292 289 292 292 283 278 272 273 267 257 259
279 290 359 288 355 337 330 323 316 305 298 298 299 298 300 298 303 302 295 294 302 303 298 294 277 263 258 261 262 260 259 261
3 22 343 329 330 316 304 304 312 309 304 307 314 316 318 323 327 320 307 301 304 304 297 294 287 288 285 280 270 267 267 268
343 338 323 317 310 320 311 308 331 332 314 300 312 316 310 306 310 322 306 297 293 292 292 294 285 283 279 276 275 265 258 255